Check out our new BloomSky Weather System.

Active alerts

Houston, TX
  Details for Houston, TX Dense Fog Advisory


Thunder radar  blitzortung!


Rain radar more information rain snow radar


Visit our other weather sites:

Template documentation
and downloads

And another site



Weather Underground History page Text

Daily Summary for December 5, 2017 Units:  English    Metric   Both
« Previous Day
Next Day »
Daily Weekly Monthly Yearly Custom
  High: Low: Average:
Temperature: 73.2 °F 54.0 °F 62.2 °F
Dew Point: 73.2 °F 40.1 °F 57.6 °F
Humidity: 100 % 57 % 86 %
Wind Speed: 12.0 mph 0.0 mph 3.1 mph
Wind Gust: 17.0 mph - -
Wind:- - SSW
Pressure: 30.23 in 29.96 in -
Precipitation: 0.04 in    
Historical Graphs
 
 
Tabular Data for December 5, 2017
Time Temperature Dew Point Pressure Wind Wind Speed Wind Gust Humidity Rainfall Rate (Hourly)
00:03 70.9 °F 70.5 °F 29.96 in SE 1.0 mph 6.0 mph 99 % 0.00 in
00:08 70.9 °F 70.5 °F 29.96 in SSW 1.0 mph 6.0 mph 99 % 0.00 in
00:13 70.9 °F 70.5 °F 29.96 in SSW 3.0 mph 6.0 mph 99 % 0.00 in
00:18 71.1 °F 70.7 °F 29.96 in SSE 1.0 mph 5.0 mph 99 % 0.00 in
00:23 71.1 °F 70.7 °F 29.97 in SSE 2.0 mph 4.0 mph 99 % 0.00 in
00:28 70.9 °F 70.5 °F 29.97 in South 1.0 mph 4.0 mph 99 % 0.00 in
00:33 71.1 °F 70.7 °F 29.96 in SE 1.0 mph 3.0 mph 99 % 0.00 in
00:38 71.1 °F 70.7 °F 29.96 in SE 1.0 mph 4.0 mph 99 % 0.00 in
00:43 71.1 °F 70.7 °F 29.96 in South 1.0 mph 5.0 mph 99 % 0.00 in
00:48 71.1 °F 70.7 °F 29.96 in SSW 1.0 mph 5.0 mph 99 % 0.00 in
00:53 71.1 °F 70.7 °F 29.97 in SSE 2.0 mph 5.0 mph 99 % 0.00 in
00:58 71.1 °F 70.7 °F 29.96 in SSW 3.0 mph 4.0 mph 99 % 0.00 in
01:03 71.1 °F 70.7 °F 29.96 in South 2.0 mph 4.0 mph 99 % 0.00 in
01:08 71.1 °F 70.7 °F 29.96 in SSW 3.0 mph 4.0 mph 99 % 0.00 in
01:13 71.1 °F 70.7 °F 29.96 in SSW 4.0 mph 6.0 mph 99 % 0.01 in
01:19 71.2 °F 70.9 °F 29.96 in South 1.0 mph 6.0 mph 99 % 0.01 in
01:24 71.1 °F 70.5 °F 29.96 in SSE 2.0 mph 6.0 mph 98 % 0.01 in
01:29 71.1 °F 70.5 °F 29.96 in SE 2.0 mph 6.0 mph 98 % 0.01 in
01:34 71.1 °F 70.5 °F 29.97 in SSW 1.0 mph 7.0 mph 98 % 0.01 in
01:39 71.1 °F 70.5 °F 29.97 in SSE 4.0 mph 7.0 mph 98 % 0.01 in
01:44 71.1 °F 70.5 °F 29.96 in South 6.0 mph 7.0 mph 98 % 0.01 in
01:49 71.1 °F 70.5 °F 29.96 in SSE 1.0 mph 6.0 mph 98 % 0.01 in
01:54 70.9 °F 70.3 °F 29.97 in SSE 4.0 mph 6.0 mph 98 % 0.01 in
01:59 70.9 °F 70.3 °F 29.97 in South 1.0 mph 6.0 mph 98 % 0.01 in
02:04 70.9 °F 70.3 °F 29.97 in South 1.0 mph 4.0 mph 98 % 0.01 in
02:09 70.7 °F 70.2 °F 29.97 in Calm   4.0 mph 98 % 0.00 in
02:14 70.5 °F 70.0 °F 29.97 in Calm   3.0 mph 98 % 0.00 in
02:19 70.5 °F 70.0 °F 29.98 in South 1.0 mph 2.0 mph 98 % 0.00 in
02:24 70.3 °F 69.8 °F 29.98 in SE 1.0 mph 2.0 mph 98 % 0.00 in
02:29 70.3 °F 69.8 °F 29.98 in SSE 1.0 mph 2.0 mph 98 % 0.00 in
02:34 70.3 °F 69.8 °F 29.98 in South 1.0 mph 2.0 mph 98 % 0.00 in
02:39 70.2 °F 69.6 °F 29.97 in Calm   2.0 mph 98 % 0.00 in
02:44 70.2 °F 69.6 °F 29.98 in Calm   2.0 mph 98 % 0.00 in
02:49 70.0 °F 69.4 °F 29.97 in SSE 1.0 mph 2.0 mph 98 % 0.00 in
02:54 70.0 °F 69.6 °F 29.97 in South 1.0 mph 2.0 mph 99 % 0.00 in
02:59 70.0 °F 69.6 °F 29.97 in SE 2.0 mph 2.0 mph 99 % 0.00 in
03:04 69.8 °F 69.4 °F 29.97 in South 1.0 mph 2.0 mph 99 % 0.00 in
03:09 70.0 °F 69.6 °F 29.97 in SSE 1.0 mph 2.0 mph 99 % 0.00 in
03:14 70.0 °F 69.6 °F 29.97 in South 3.0 mph 4.0 mph 99 % 0.00 in
03:19 70.0 °F 69.6 °F 29.97 in Calm   4.0 mph 99 % 0.00 in
03:24 70.0 °F 69.6 °F 29.97 in South 2.0 mph 4.0 mph 99 % 0.00 in
03:29 70.0 °F 69.6 °F 29.97 in South 1.0 mph 4.0 mph 99 % 0.00 in
03:34 70.0 °F 69.6 °F 29.97 in South 1.0 mph 4.0 mph 99 % 0.00 in
03:39 70.0 °F 69.6 °F 29.97 in SSE 1.0 mph 3.0 mph 99 % 0.00 in
03:44 69.8 °F 69.4 °F 29.97 in SSE 1.0 mph 3.0 mph 99 % 0.00 in
03:49 69.8 °F 69.4 °F 29.97 in SSE 1.0 mph 3.0 mph 99 % 0.00 in
03:54 69.8 °F 69.4 °F 29.97 in South 1.0 mph 3.0 mph 99 % 0.00 in
03:59 69.6 °F 69.3 °F 29.97 in South 1.0 mph 2.0 mph 99 % 0.00 in
04:04 69.6 °F 69.3 °F 29.97 in SSW 2.0 mph 3.0 mph 99 % 0.00 in
04:09 69.6 °F 69.3 °F 29.96 in South 1.0 mph 3.0 mph 99 % 0.00 in
04:14 69.6 °F 69.3 °F 29.97 in SSW 1.0 mph 4.0 mph 99 % 0.00 in
04:19 69.6 °F 69.3 °F 29.97 in South 2.0 mph 4.0 mph 99 % 0.00 in
04:24 69.6 °F 69.3 °F 29.97 in South 1.0 mph 4.0 mph 99 % 0.00 in
04:29 69.6 °F 69.3 °F 29.97 in SSW 1.0 mph 3.0 mph 99 % 0.00 in
04:34 69.6 °F 69.3 °F 29.97 in SE 1.0 mph 3.0 mph 99 % 0.00 in
04:40 69.4 °F 69.1 °F 29.97 in Calm   3.0 mph 99 % 0.00 in
04:45 69.4 °F 69.1 °F 29.97 in Calm   3.0 mph 99 % 0.00 in
04:50 69.3 °F 68.9 °F 29.97 in Calm   1.0 mph 99 % 0.00 in
04:55 69.1 °F 68.7 °F 29.97 in Calm   1.0 mph 99 % 0.00 in
05:00 68.7 °F 68.4 °F 29.97 in Calm     99 % 0.00 in
05:05 68.5 °F 68.2 °F 29.97 in Calm     99 % 0.00 in
05:10 68.4 °F 68.0 °F 29.97 in Calm     99 % 0.00 in
05:15 68.4 °F 68.0 °F 29.98 in Calm   1.0 mph 99 % 0.00 in
05:20 68.4 °F 68.0 °F 29.98 in SE 1.0 mph 1.0 mph 99 % 0.00 in
05:25 68.2 °F 67.8 °F 29.99 in NNW 1.0 mph 1.0 mph 99 % 0.00 in
05:30 67.8 °F 67.5 °F 29.99 in NNW 1.0 mph 2.0 mph 99 % 0.00 in
05:31 67.8 °F 67.5 °F 29.99 in NNW 1.0 mph 2.0 mph 99 % 0.00 in
05:36 67.8 °F 67.5 °F 29.99 in Calm   2.0 mph 99 % 0.00 in
05:41 67.8 °F 67.5 °F 29.99 in Calm   2.0 mph 99 % 0.00 in
05:46 67.8 °F 67.5 °F 30.00 in Calm   2.0 mph 99 % 0.00 in
05:51 68.2 °F 68.2 °F 30.00 in NNW 1.0 mph 1.0 mph 100 % 0.00 in
05:56 68.4 °F 68.4 °F 30.00 in Calm   1.0 mph 100 % 0.00 in
06:01 68.4 °F 68.4 °F 30.00 in Calm   1.0 mph 100 % 0.00 in
06:06 68.5 °F 68.5 °F 30.00 in Calm   1.0 mph 100 % 0.00 in
06:11 68.5 °F 68.5 °F 30.01 in NNE 2.0 mph 2.0 mph 100 % 0.00 in
06:16 68.7 °F 68.7 °F 30.01 in North 1.0 mph 2.0 mph 100 % 0.00 in
06:21 68.7 °F 68.7 °F 30.01 in Calm   2.0 mph 100 % 0.00 in
06:26 68.9 °F 68.9 °F 30.02 in North 1.0 mph 2.0 mph 100 % 0.00 in
06:31 68.9 °F 68.9 °F 30.02 in Calm   2.0 mph 100 % 0.00 in
06:36 69.1 °F 69.1 °F 30.02 in Calm   2.0 mph 100 % 0.00 in
06:41 69.1 °F 69.1 °F 30.02 in Calm   2.0 mph 100 % 0.00 in
06:46 69.1 °F 69.1 °F 30.02 in Calm   2.0 mph 100 % 0.00 in
06:51 69.1 °F 69.1 °F 30.02 in Calm   1.0 mph 100 % 0.00 in
06:56 68.9 °F 68.9 °F 30.02 in Calm   1.0 mph 100 % 0.00 in
07:01 68.9 °F 68.9 °F 30.03 in Calm   1.0 mph 100 % 0.00 in
07:06 68.9 °F 68.9 °F 30.03 in Calm   1.0 mph 100 % 0.00 in
07:11 68.7 °F 68.7 °F 30.04 in Calm   1.0 mph 100 % 0.00 in
07:16 68.7 °F 68.7 °F 30.03 in Calm   1.0 mph 100 % 0.00 in
07:21 68.7 °F 68.7 °F 30.04 in Calm   1.0 mph 100 % 0.00 in
07:26 68.5 °F 68.2 °F 30.04 in Calm   1.0 mph 99 % 0.00 in
07:36 68.5 °F 68.5 °F 30.04 in SSW 1.0 mph 2.0 mph 100 % 0.00 in
07:41 68.7 °F 68.7 °F 30.04 in Calm   3.0 mph 100 % 0.00 in
07:46 68.9 °F 68.9 °F 30.04 in Calm   3.0 mph 100 % 0.00 in
07:51 69.3 °F 69.3 °F 30.04 in Calm   3.0 mph 100 % 0.00 in
07:56 69.6 °F 69.6 °F 30.04 in Calm   2.0 mph 100 % 0.00 in
08:01 70.2 °F 70.2 °F 30.04 in Calm   2.0 mph 100 % 0.00 in
08:06 70.3 °F 70.3 °F 30.04 in Calm     100 % 0.00 in
08:11 70.3 °F 70.3 °F 30.04 in Calm   1.0 mph 100 % 0.00 in
08:16 71.1 °F 71.1 °F 30.05 in Calm   1.0 mph 100 % 0.00 in
08:26 72.3 °F 72.3 °F 30.05 in Calm   1.0 mph 100 % 0.00 in
08:31 72.3 °F 72.3 °F 30.05 in Calm     100 % 0.00 in
08:41 72.5 °F 72.5 °F 30.05 in Calm   1.0 mph 100 % 0.00 in
08:46 72.3 °F 72.3 °F 30.06 in NNW 1.0 mph 2.0 mph 100 % 0.00 in
08:51 72.1 °F 71.8 °F 30.06 in Calm   2.0 mph 99 % 0.00 in
08:56 72.1 °F 71.8 °F 30.06 in Calm   2.0 mph 99 % 0.00 in
09:01 72.0 °F 71.6 °F 30.06 in NW 1.0 mph 2.0 mph 99 % 0.00 in
09:06 72.0 °F 71.6 °F 30.07 in Calm   2.0 mph 99 % 0.00 in
09:11 72.0 °F 71.6 °F 30.07 in Calm   2.0 mph 99 % 0.00 in
09:16 72.5 °F 72.5 °F 30.07 in NNW 1.0 mph 2.0 mph 100 % 0.00 in
09:21 72.7 °F 72.3 °F 30.08 in Calm   2.0 mph 99 % 0.00 in
09:26 73.2 °F 73.2 °F 30.08 in NNW 1.0 mph 3.0 mph 100 % 0.00 in
09:36 71.2 °F 68.5 °F 30.09 in NW 10.0 mph 12.0 mph 91 % 0.00 in
09:42 68.2 °F 65.1 °F 30.10 in NNE 2.0 mph 12.0 mph 90 % 0.00 in
09:47 65.8 °F 63.1 °F 30.09 in North 5.0 mph 13.0 mph 91 % 0.00 in
09:52 64.8 °F 62.6 °F 30.11 in WNW 9.0 mph 13.0 mph 93 % 0.00 in
09:57 63.5 °F 61.5 °F 30.11 in NNW 6.0 mph 17.0 mph 93 % 0.00 in
10:02 62.8 °F 61.0 °F 30.11 in NNW 8.0 mph 17.0 mph 94 % 0.00 in
10:07 62.4 °F 61.0 °F 30.12 in WNW 4.0 mph 17.0 mph 95 % 0.02 in
10:12 62.1 °F 61.0 °F 30.12 in NW 7.0 mph 13.0 mph 96 % 0.02 in
10:17 61.9 °F 61.0 °F 30.12 in North 5.0 mph 12.0 mph 97 % 0.02 in
10:22 61.9 °F 61.0 °F 30.12 in WNW 6.0 mph 12.0 mph 97 % 0.02 in
10:27 61.5 °F 60.6 °F 30.12 in WNW 7.0 mph 12.0 mph 97 % 0.03 in
10:32 61.2 °F 60.3 °F 30.12 in NNW 3.0 mph 11.0 mph 97 % 0.03 in
10:37 61.0 °F 60.1 °F 30.12 in NNW 4.0 mph 11.0 mph 97 % 0.03 in
10:42 60.6 °F 59.7 °F 30.12 in NNW 7.0 mph 11.0 mph 97 % 0.03 in
10:47 60.6 °F 59.7 °F 30.11 in NW 7.0 mph 11.0 mph 97 % 0.03 in
10:52 60.4 °F 59.5 °F 30.10 in NW 5.0 mph 10.0 mph 97 % 0.03 in
10:57 60.4 °F 59.5 °F 30.10 in North 5.0 mph 10.0 mph 97 % 0.03 in
11:02 60.1 °F 59.2 °F 30.11 in North 7.0 mph 12.0 mph 97 % 0.03 in
11:07 60.1 °F 59.2 °F 30.11 in NNW 6.0 mph 15.0 mph 97 % 0.01 in
11:12 59.7 °F 58.8 °F 30.11 in NNW 4.0 mph 15.0 mph 97 % 0.01 in
11:17 59.7 °F 58.8 °F 30.12 in NW 5.0 mph 15.0 mph 97 % 0.01 in
11:22 59.5 °F 58.6 °F 30.12 in North 5.0 mph 11.0 mph 97 % 0.00 in
11:27 59.5 °F 58.6 °F 30.12 in North 4.0 mph 11.0 mph 97 % 0.00 in
11:32 59.5 °F 58.6 °F 30.12 in NNW 4.0 mph 11.0 mph 97 % 0.00 in
11:37 59.4 °F 58.5 °F 30.12 in NW 4.0 mph 10.0 mph 97 % 0.00 in
11:47 59.5 °F 58.6 °F 30.12 in NNW 6.0 mph 11.0 mph 97 % 0.00 in
11:52 59.5 °F 58.6 °F 30.12 in NNW 4.0 mph 11.0 mph 97 % 0.00 in
11:57 59.5 °F 58.5 °F 30.12 in NW 11.0 mph 11.0 mph 96 % 0.00 in
12:02 59.4 °F 58.3 °F 30.12 in North 8.0 mph 14.0 mph 96 % 0.00 in
12:07 59.2 °F 57.7 °F 30.12 in NNW 6.0 mph 14.0 mph 95 % 0.00 in
12:12 59.2 °F 57.7 °F 30.11 in NW 6.0 mph 14.0 mph 95 % 0.00 in
12:17 59.2 °F 57.7 °F 30.11 in NNW 7.0 mph 12.0 mph 95 % 0.00 in
12:22 59.4 °F 57.9 °F 30.11 in North 4.0 mph 12.0 mph 95 % 0.00 in
12:27 59.4 °F 57.6 °F 30.11 in NNW 5.0 mph 12.0 mph 94 % 0.00 in
12:32 59.2 °F 57.4 °F 30.11 in NNW 7.0 mph 17.0 mph 94 % 0.00 in
12:37 59.2 °F 57.2 °F 30.12 in NNW 3.0 mph 17.0 mph 93 % 0.00 in
12:42 59.2 °F 57.2 °F 30.12 in NNE 7.0 mph 17.0 mph 93 % 0.00 in
12:47 58.8 °F 56.5 °F 30.12 in NW 5.0 mph 15.0 mph 92 % 0.00 in
12:52 59.0 °F 57.0 °F 30.12 in NNW 7.0 mph 15.0 mph 93 % 0.00 in
12:57 59.2 °F 56.8 °F 30.12 in North 8.0 mph 15.0 mph 92 % 0.00 in
13:02 59.2 °F 56.8 °F 30.12 in North 9.0 mph 14.0 mph 92 % 0.00 in
13:07 59.2 °F 56.8 °F 30.12 in NNW 7.0 mph 14.0 mph 92 % 0.00 in
13:12 58.8 °F 56.1 °F 30.12 in North 9.0 mph 12.0 mph 91 % 0.00 in
13:17 58.6 °F 56.3 °F 30.12 in NNW 5.0 mph 12.0 mph 92 % 0.00 in
13:22 58.6 °F 56.3 °F 30.12 in NNW 5.0 mph 12.0 mph 92 % 0.00 in
13:27 58.5 °F 55.8 °F 30.12 in WSW 6.0 mph 12.0 mph 91 % 0.00 in
13:32 58.3 °F 55.4 °F 30.12 in North 10.0 mph 12.0 mph 90 % 0.00 in
13:37 58.3 °F 55.4 °F 30.12 in WNW 3.0 mph 15.0 mph 90 % 0.00 in
13:42 58.3 °F 55.4 °F 30.12 in NNW 4.0 mph 15.0 mph 90 % 0.00 in
13:47 58.3 °F 55.4 °F 30.12 in North 4.0 mph 15.0 mph 90 % 0.00 in
13:52 58.3 °F 55.4 °F 30.12 in WNW 5.0 mph 12.0 mph 90 % 0.00 in
13:57 58.1 °F 54.9 °F 30.13 in NNW 6.0 mph 13.0 mph 89 % 0.00 in
14:02 57.9 °F 54.7 °F 30.12 in NNW 4.0 mph 17.0 mph 89 % 0.00 in
14:07 57.7 °F 54.5 °F 30.12 in NNE 6.0 mph 17.0 mph 89 % 0.00 in
14:12 57.7 °F 54.5 °F 30.12 in NNE 7.0 mph 17.0 mph 89 % 0.00 in
14:17 57.7 °F 54.5 °F 30.12 in NW 5.0 mph 15.0 mph 89 % 0.00 in
14:22 57.6 °F 54.0 °F 30.13 in NNW 8.0 mph 15.0 mph 88 % 0.00 in
14:27 57.7 °F 54.1 °F 30.13 in NNW 1.0 mph 12.0 mph 88 % 0.00 in
14:33 57.7 °F 54.0 °F 30.13 in NW 7.0 mph 12.0 mph 87 % 0.00 in
14:38 57.7 °F 54.0 °F 30.13 in NE 3.0 mph 14.0 mph 87 % 0.00 in
14:43 57.7 °F 54.0 °F 30.14 in North 11.0 mph 14.0 mph 87 % 0.00 in
14:48 57.6 °F 53.8 °F 30.14 in NW 4.0 mph 14.0 mph 87 % 0.00 in
14:53 57.6 °F 53.8 °F 30.14 in North 10.0 mph 11.0 mph 87 % 0.00 in
14:58 57.6 °F 53.4 °F 30.14 in NE 3.0 mph 16.0 mph 86 % 0.00 in
15:03 57.4 °F 53.2 °F 30.14 in NW 5.0 mph 16.0 mph 86 % 0.00 in
15:08 57.4 °F 53.2 °F 30.14 in North 7.0 mph 16.0 mph 86 % 0.00 in
15:13 57.4 °F 53.2 °F 30.14 in NNW 3.0 mph 16.0 mph 86 % 0.00 in
15:18 57.4 °F 53.2 °F 30.14 in NNW 6.0 mph 13.0 mph 86 % 0.00 in
15:23 57.2 °F 53.1 °F 30.14 in North 4.0 mph 13.0 mph 86 % 0.00 in
15:28 57.2 °F 52.7 °F 30.14 in NNE 11.0 mph 13.0 mph 85 % 0.00 in
15:33 57.2 °F 52.7 °F 30.14 in WNW 3.0 mph 14.0 mph 85 % 0.00 in
15:34 57.2 °F 52.7 °F 30.14 in North 6.0 mph 14.0 mph 85 % 0.00 in
15:39 57.2 °F 52.7 °F 30.14 in NNE 9.0 mph 14.0 mph 85 % 0.00 in
15:44 57.0 °F 52.5 °F 30.15 in NW 3.0 mph 14.0 mph 85 % 0.00 in
15:49 57.0 °F 52.2 °F 30.15 in NNW 4.0 mph 14.0 mph 84 % 0.00 in
15:54 57.0 °F 52.2 °F 30.15 in WNW 3.0 mph 17.0 mph 84 % 0.00 in
15:59 57.0 °F 52.2 °F 30.15 in NW 6.0 mph 17.0 mph 84 % 0.00 in
16:00 57.0 °F 52.2 °F 30.15 in NNW 5.0 mph 17.0 mph 84 % 0.00 in
16:05 57.0 °F 52.0 °F 30.15 in NNE 3.0 mph 13.0 mph 83 % 0.00 in
16:10 57.0 °F 50.9 °F 30.15 in NE 4.0 mph 14.0 mph 80 % 0.00 in
16:15 57.0 °F 50.5 °F 30.16 in West 5.0 mph 14.0 mph 79 % 0.00 in
16:20 57.0 °F 50.5 °F 30.16 in NNW 2.0 mph 14.0 mph 79 % 0.00 in
16:25 56.8 °F 49.3 °F 30.16 in NE 6.0 mph 14.0 mph 76 % 0.00 in
16:30 56.8 °F 49.3 °F 30.16 in NNE 3.0 mph 14.0 mph 76 % 0.00 in
16:35 56.8 °F 49.3 °F 30.16 in NW 4.0 mph 14.0 mph 76 % 0.00 in
16:40 56.7 °F 48.7 °F 30.16 in North 12.0 mph 16.0 mph 75 % 0.00 in
16:45 56.7 °F 48.0 °F 30.17 in NE 7.0 mph 16.0 mph 73 % 0.00 in
16:50 56.7 °F 47.7 °F 30.17 in North 9.0 mph 16.0 mph 72 % 0.00 in
16:55 56.5 °F 47.1 °F 30.17 in ENE 7.0 mph 14.0 mph 71 % 0.00 in
17:00 56.5 °F 46.8 °F 30.17 in South 3.0 mph 16.0 mph 70 % 0.00 in
17:05 56.3 °F 46.9 °F 30.17 in NNW 1.0 mph 16.0 mph 71 % 0.00 in
17:10 56.1 °F 46.8 °F 30.17 in NE 9.0 mph 16.0 mph 71 % 0.00 in
17:15 56.1 °F 46.8 °F 30.17 in WNW 5.0 mph 15.0 mph 71 % 0.00 in
17:20 55.9 °F 46.8 °F 30.17 in NNE 6.0 mph 15.0 mph 71 % 0.00 in
17:25 55.9 °F 46.8 °F 30.18 in NE 1.0 mph 13.0 mph 71 % 0.00 in
17:30 55.9 °F 46.8 °F 30.18 in NW 1.0 mph 13.0 mph 71 % 0.00 in
17:35 55.9 °F 46.8 °F 30.18 in NE 5.0 mph 13.0 mph 71 % 0.00 in
17:40 55.9 °F 46.8 °F 30.19 in NW 5.0 mph 13.0 mph 71 % 0.00 in
17:45 55.9 °F 47.1 °F 30.19 in NW 2.0 mph 13.0 mph 72 % 0.00 in
17:50 55.9 °F 47.1 °F 30.19 in NE 5.0 mph 9.0 mph 72 % 0.00 in
17:55 55.9 °F 47.1 °F 30.19 in North 4.0 mph 12.0 mph 72 % 0.00 in
18:00 55.9 °F 47.5 °F 30.19 in NNE 5.0 mph 12.0 mph 73 % 0.00 in
18:05 55.9 °F 47.8 °F 30.19 in WNW 3.0 mph 12.0 mph 74 % 0.00 in
18:10 55.8 °F 48.0 °F 30.19 in NNE 2.0 mph 11.0 mph 75 % 0.00 in
18:15 55.8 °F 48.0 °F 30.19 in West 1.0 mph 11.0 mph 75 % 0.00 in
18:20 55.8 °F 48.4 °F 30.19 in NNW 2.0 mph 11.0 mph 76 % 0.00 in
18:25 55.8 °F 48.4 °F 30.19 in East 2.0 mph 10.0 mph 76 % 0.00 in
18:30 55.8 °F 48.7 °F 30.19 in NNW 2.0 mph 10.0 mph 77 % 0.00 in
18:32 55.8 °F 48.4 °F 30.19 in NE 1.0 mph 10.0 mph 76 % 0.00 in
18:37 55.8 °F 48.7 °F 30.20 in WNW 2.0 mph 9.0 mph 77 % 0.00 in
18:42 55.8 °F 48.4 °F 30.19 in NW 5.0 mph 9.0 mph 76 % 0.00 in
18:47 55.8 °F 48.0 °F 30.19 in NW 4.0 mph 9.0 mph 75 % 0.00 in
18:53 55.8 °F 48.0 °F 30.20 in ESE 4.0 mph 12.0 mph 75 % 0.00 in
19:03 55.8 °F 44.6 °F 30.21 in NNE 7.0 mph 15.0 mph 66 % 0.00 in
19:08 55.8 °F 44.6 °F 30.21 in Calm   15.0 mph 66 % 0.00 in
19:13 55.8 °F 44.2 °F 30.21 in NNW 4.0 mph 15.0 mph 65 % 0.00 in
19:18 55.8 °F 44.2 °F 30.22 in NW 2.0 mph 14.0 mph 65 % 0.00 in
19:23 55.8 °F 43.7 °F 30.21 in WNW 3.0 mph 12.0 mph 64 % 0.00 in
19:28 55.6 °F 43.5 °F 30.21 in NW 3.0 mph 12.0 mph 64 % 0.00 in
19:30 55.6 °F 42.8 °F 30.21 in North 3.0 mph 12.0 mph 62 % 0.00 in
19:36 55.6 °F 41.9 °F 30.21 in North 5.0 mph 14.0 mph 60 % 0.00 in
19:41 55.4 °F 41.7 °F 30.21 in North 6.0 mph 14.0 mph 60 % 0.00 in
19:46 55.2 °F 41.2 °F 30.21 in South 2.0 mph 14.0 mph 59 % 0.00 in
19:51 55.2 °F 41.2 °F 30.21 in North 6.0 mph 11.0 mph 59 % 0.00 in
19:56 55.2 °F 40.6 °F 30.22 in North 5.0 mph 11.0 mph 58 % 0.00 in
20:01 55.0 °F 40.1 °F 30.21 in NE 2.0 mph 14.0 mph 57 % 0.00 in
20:06 55.0 °F 40.5 °F 30.21 in NNW 3.0 mph 14.0 mph 58 % 0.00 in
20:16 55.0 °F 40.5 °F 30.21 in NNW 6.0 mph 11.0 mph 58 % 0.00 in
20:21 55.0 °F 40.5 °F 30.21 in NNW 4.0 mph 11.0 mph 58 % 0.00 in
20:26 55.0 °F 40.5 °F 30.22 in NNE 3.0 mph 11.0 mph 58 % 0.00 in
20:27 55.0 °F 40.5 °F 30.22 in NNW 1.0 mph 11.0 mph 58 % 0.00 in
20:32 55.0 °F 40.5 °F 30.22 in NNE 5.0 mph 11.0 mph 58 % 0.00 in
20:37 54.9 °F 40.3 °F 30.22 in NE 5.0 mph 11.0 mph 58 % 0.00 in
20:42 54.9 °F 40.3 °F 30.22 in NW 5.0 mph 9.0 mph 58 % 0.00 in
20:52 54.9 °F 40.3 °F 30.21 in ESE 3.0 mph 11.0 mph 58 % 0.00 in
20:57 54.7 °F 40.3 °F 30.21 in ENE 2.0 mph 11.0 mph 58 % 0.00 in
21:02 54.7 °F 40.3 °F 30.22 in NNW 3.0 mph 11.0 mph 58 % 0.00 in
21:12 54.7 °F 40.6 °F 30.22 in North 7.0 mph 11.0 mph 59 % 0.00 in
21:17 54.7 °F 40.3 °F 30.21 in West 4.0 mph 10.0 mph 58 % 0.00 in
21:22 54.7 °F 40.6 °F 30.20 in North 1.0 mph 11.0 mph 59 % 0.00 in
21:27 54.7 °F 40.6 °F 30.21 in NNE 3.0 mph 11.0 mph 59 % 0.00 in
21:32 54.5 °F 40.5 °F 30.21 in NNW 1.0 mph 11.0 mph 59 % 0.00 in
21:37 54.3 °F 40.8 °F 30.21 in North 1.0 mph 9.0 mph 60 % 0.00 in
21:42 54.3 °F 41.2 °F 30.22 in North 3.0 mph 9.0 mph 61 % 0.00 in
21:47 54.3 °F 41.2 °F 30.22 in North 4.0 mph 11.0 mph 61 % 0.00 in
21:52 54.3 °F 40.8 °F 30.22 in North 5.0 mph 11.0 mph 60 % 0.00 in
21:57 54.3 °F 41.2 °F 30.22 in NE 3.0 mph 11.0 mph 61 % 0.00 in
22:02 54.3 °F 41.2 °F 30.22 in ENE 5.0 mph 9.0 mph 61 % 0.00 in
22:07 54.3 °F 41.2 °F 30.22 in North 10.0 mph 10.0 mph 61 % 0.00 in
22:12 54.3 °F 41.2 °F 30.22 in ENE 2.0 mph 16.0 mph 61 % 0.00 in
22:17 54.3 °F 41.2 °F 30.22 in Calm   16.0 mph 61 % 0.00 in
22:22 54.1 °F 41.0 °F 30.22 in ENE 3.0 mph 16.0 mph 61 % 0.00 in
22:27 54.1 °F 41.4 °F 30.22 in ENE 5.0 mph 12.0 mph 62 % 0.00 in
22:32 54.1 °F 41.4 °F 30.22 in Calm   12.0 mph 62 % 0.00 in
22:37 54.1 °F 41.4 °F 30.22 in NE 3.0 mph 12.0 mph 62 % 0.00 in
22:42 54.1 °F 41.4 °F 30.22 in NE 2.0 mph 9.0 mph 62 % 0.00 in
22:47 54.1 °F 41.9 °F 30.22 in NNW 1.0 mph 9.0 mph 63 % 0.00 in
22:52 54.1 °F 41.4 °F 30.22 in North 4.0 mph 9.0 mph 62 % 0.00 in
22:54 54.1 °F 41.4 °F 30.22 in ENE 1.0 mph 9.0 mph 62 % 0.00 in
22:59 54.0 °F 41.2 °F 30.23 in NNW 2.0 mph 8.0 mph 62 % 0.00 in
23:04 54.0 °F 41.2 °F 30.23 in NNE 3.0 mph 8.0 mph 62 % 0.00 in
23:09 54.1 °F 41.4 °F 30.23 in NNW 1.0 mph 8.0 mph 62 % 0.00 in
23:14 54.0 °F 41.2 °F 30.22 in WNW 2.0 mph 8.0 mph 62 % 0.00 in
23:19 54.0 °F 41.2 °F 30.22 in NNW 2.0 mph 8.0 mph 62 % 0.00 in
23:24 54.0 °F 41.2 °F 30.21 in NW 2.0 mph 8.0 mph 62 % 0.00 in
23:29 54.0 °F 41.2 °F 30.21 in WNW 5.0 mph 8.0 mph 62 % 0.00 in
23:34 54.0 °F 41.2 °F 30.21 in East 1.0 mph 9.0 mph 62 % 0.00 in
23:39 54.0 °F 41.7 °F 30.22 in NE 2.0 mph 10.0 mph 63 % 0.00 in
23:44 54.0 °F 41.2 °F 30.22 in Calm   10.0 mph 62 % 0.00 in
23:49 54.0 °F 40.8 °F 30.23 in WNW 1.0 mph 10.0 mph 61 % 0.00 in
23:54 54.0 °F 41.2 °F 30.22 in NW 2.0 mph 8.0 mph 62 % 0.00 in
23:59 54.0 °F 40.8 °F 30.23 in NNE 3.0 mph 8.0 mph 61 % 0.00 in
Spring, Texas: Villages of Bridgestone
Compliments of Weather Underground - 2.75 mb

Script developed by  Jim McMurry - jmcmurry@mwt.net Adapted for the template by  Wim van der Kuil - Leuven-Template.eu

You find our weather info also at:

UK Metoffice

WeatherCloud

Weather Underground

Mid-South Weather Network

AWEKAS

Citizen Weather Observer Program (CWOP)

HAMweather, WeatherForYou, PWS Weather

Equipment we use:

Weather-station
Davis Vantage Vue

Weather-program
Meteohub

Weather-server
Debian 7.9 x86 (Guest)

Provider
DreamHost

Davis Vantage Vue

Meteohub

Debian 7.9 x86 (Guest)

DreamHost